"read_dt","SO2 (ppb)","flags","PMT voltage (V)","lamp voltage (V)","lamp intensity (Hz)","internal temp (C)","react chamber temp (C)","sample flow (l/min)","pres (mmHg)","SO2 bkg (ppb)","SO2 coefficient"
2015-04-25 00:00:00,1640E-3,5C000000,-0724,0834,12275,027.0,045.4,0.476,734.1,01.19,0.508
2015-04-25 00:01:00,1836E-3,5C000000,-0724,0834,12256,027.0,045.4,0.476,734.1,01.19,0.508
2015-04-25 00:02:00,1842E-3,5C000000,-0724,0834,12305,027.0,045.4,0.476,734.1,01.19,0.508
2015-04-25 00:03:00,1795E-3,5C000000,-0724,0833,12140,027.0,045.4,0.476,734.1,01.19,0.508
2015-04-25 00:04:00,1654E-3,5C000000,-0724,0833,11999,027.0,045.4,0.476,734.1,01.19,0.508
2015-04-25 00:05:00,1758E-3,5C000000,-0724,0833,12144,027.0,045.4,0.476,734.1,01.19,0.508
2015-04-25 00:06:00,1870E-3,5C000000,-0724,0832,12255,027.0,045.4,0.476,734.1,01.19,0.508
2015-04-25 00:07:00,1777E-3,5C000000,-0724,0834,12182,027.0,045.4,0.476,734.1,01.19,0.508
2015-04-25 00:08:00,1654E-3,5C000000,-0724,0833,12142,027.0,045.4,0.476,734.1,01.19,0.508
2015-04-25 00:09:00,1775E-3,5C000000,-0724,0833,12107,027.0,045.4,0.476,734.1,01.19,0.508
2015-04-25 00:10:00,1773E-3,5C000000,-0724,0833,12263,027.0,045.4,0.476,734.1,01.19,0.508
2015-04-25 00:11:00,1856E-3,5C000000,-0724,0833,12155,027.0,045.4,0.476,734.0,01.19,0.508
2015-04-25 00:12:00,1771E-3,5C000000,-0724,0834,12208,027.0,045.4,0.476,734.1,01.19,0.508
2015-04-25 00:13:00,1756E-3,5C000000,-0724,0834,12074,027.0,045.4,0.476,734.1,01.19,0.508
2015-04-25 00:14:00,1835E-3,5C000000,-0724,0834,12192,027.0,045.4,0.476,734.0,01.19,0.508
2015-04-25 00:15:00,1971E-3,5C000000,-0724,0834,12085,027.0,045.4,0.476,734.0,01.19,0.508
2015-04-25 00:16:00,1791E-3,5C000000,-0724,0833,12227,027.0,045.4,0.476,734.1,01.19,0.508
2015-04-25 00:17:00,1777E-3,5C000000,-0724,0833,12170,027.0,045.4,0.476,734.0,01.19,0.508
2015-04-25 00:18:00,1704E-3,5C000000,-0724,0833,12157,027.0,045.4,0.476,734.0,01.19,0.508
2015-04-25 00:19:00,1826E-3,5C000000,-0724,0832,12107,027.0,045.4,0.476,734.0,01.19,0.508
2015-04-25 00:20:00,1657E-3,5C000000,-0724,0833,12137,027.0,045.4,0.476,734.0,01.19,0.508
2015-04-25 00:21:00,1875E-3,5C000000,-0724,0833,12217,027.0,045.4,0.476,734.0,01.19,0.508
2015-04-25 00:22:00,1881E-3,5C000000,-0724,0833,12243,027.0,045.4,0.476,734.0,01.19,0.508
2015-04-25 00:23:00,1609E-3,5C000000,-0724,0833,12075,027.0,045.4,0.476,734.0,01.19,0.508
2015-04-25 00:24:00,1787E-3,5C000000,-0724,0834,12399,027.0,045.4,0.476,734.0,01.19,0.508
2015-04-25 00:25:00,1808E-3,5C000000,-0724,0834,11923,027.0,045.4,0.476,734.0,01.19,0.508
2015-04-25 00:26:00,1784E-3,5C000000,-0724,0834,12204,027.0,045.4,0.476,734.0,01.19,0.508
2015-04-25 00:27:00,1774E-3,5C000000,-0724,0834,12071,027.0,045.4,0.476,734.0,01.19,0.508
2015-04-25 00:28:00,1629E-3,5C000000,-0724,0834,12196,026.9,045.4,0.476,734.0,01.19,0.508
2015-04-25 00:29:00,1685E-3,5C000000,-0724,0833,11999,026.9,045.4,0.476,734.0,01.19,0.508
2015-04-25 00:30:00,1716E-3,5C000000,-0724,0833,12170,027.0,045.4,0.477,734.0,01.19,0.508
2015-04-25 00:31:00,1824E-3,5C000000,-0724,0833,12163,027.0,045.4,0.476,733.9,01.19,0.508
2015-04-25 00:32:00,1737E-3,5C000000,-0724,0833,12239,027.1,045.4,0.477,733.9,01.19,0.508
2015-04-25 00:33:00,1771E-3,5C000000,-0724,0833,12222,027.1,045.4,0.477,733.9,01.19,0.508
2015-04-25 00:34:00,1722E-3,5C000000,-0724,0833,12161,027.1,045.4,0.477,733.9,01.19,0.508
2015-04-25 00:35:00,1939E-3,5C000000,-0724,0833,12135,027.2,045.4,0.477,733.9,01.19,0.508
2015-04-25 00:36:00,1675E-3,5C000000,-0724,0834,12132,027.0,045.4,0.477,733.9,01.19,0.508
2015-04-25 00:37:00,1759E-3,5C000000,-0724,0833,12094,027.1,045.4,0.477,733.8,01.19,0.508
"read_dt","SO2 (ppb)","flags","PMT voltage (V)","lamp voltage (V)","lamp intensity (Hz)","internal temp (C)","react chamber temp (C)","sample flow (l/min)","pres (mmHg)","SO2 bkg (ppb)","SO2 coefficient"
2015-04-25 00:40:00,1793E-3,5C000000,-0724,0833,12080,027.1,045.4,0.478,733.8,01.19,0.508
2015-04-25 00:41:00,1682E-3,5C000000,-0724,0833,12089,027.1,045.4,0.478,733.8,01.19,0.508
2015-04-25 00:42:00,1721E-3,5C000000,-0724,0833,11962,027.1,045.4,0.478,733.8,01.19,0.508
2015-04-25 00:43:00,1873E-3,5C000000,-0724,0833,12213,027.1,045.4,0.478,733.8,01.19,0.508
2015-04-25 00:44:00,1810E-3,5C000000,-0724,0833,12324,027.1,045.4,0.478,733.8,01.19,0.508
2015-04-25 00:45:00,1734E-3,5C000000,-0724,0833,12139,027.1,045.4,0.477,733.8,01.19,0.508
2015-04-25 00:46:00,1750E-3,5C000000,-0724,0834,12002,027.1,045.4,0.478,733.8,01.19,0.508
2015-04-25 00:47:00,1708E-3,5C000000,-0724,0834,12142,027.2,045.4,0.478,733.8,01.19,0.508
2015-04-25 00:48:00,1698E-3,5C000000,-0724,0834,12158,027.2,045.4,0.477,733.8,01.19,0.508
2015-04-25 00:49:00,1771E-3,5C000000,-0724,0834,12213,027.2,045.4,0.478,733.7,01.19,0.508
2015-04-25 00:50:00,1804E-3,5C000000,-0724,0834,11982,027.2,045.4,0.477,733.7,01.19,0.508
2015-04-25 00:51:00,1911E-3,5C000000,-0724,0833,12297,027.2,045.4,0.478,733.7,01.19,0.508
2015-04-25 00:52:00,1666E-3,5C000000,-0724,0833,12270,027.2,045.4,0.477,733.7,01.19,0.508
2015-04-25 00:53:00,1743E-3,5C000000,-0724,0833,12125,027.2,045.4,0.478,733.7,01.19,0.508
2015-04-25 00:54:00,1631E-3,5C000000,-0724,0834,12229,027.2,045.4,0.477,733.7,01.19,0.508
2015-04-25 00:55:00,1775E-3,5C000000,-0724,0833,12165,027.2,045.4,0.478,733.7,01.19,0.508
2015-04-25 00:56:00,1782E-3,5C000000,-0724,0833,12060,027.2,045.4,0.478,733.7,01.19,0.508
2015-04-25 00:57:00,1647E-3,5C000000,-0724,0833,12073,027.2,045.4,0.478,733.7,01.19,0.508
2015-04-25 00:58:00,1679E-3,5C000000,-0724,0833,12128,027.2,045.4,0.478,733.7,01.19,0.508
2015-04-25 00:59:00,1698E-3,5C000000,-0724,0834,12248,027.2,045.4,0.477,733.7,01.19,0.508
2015-04-25 01:00:00,1622E-3,5C000000,-0724,0834,12040,027.2,045.4,0.478,733.7,01.19,0.508
2015-04-25 01:01:00,1865E-3,5C000000,-0724,0834,12083,027.2,045.4,0.478,733.7,01.19,0.508
2015-04-25 01:02:00,1708E-3,5C000000,-0724,0834,12180,027.2,045.4,0.477,733.7,01.19,0.508
2015-04-25 01:03:00,1847E-3,5C000000,-0724,0833,12140,027.2,045.4,0.477,733.6,01.19,0.508
2015-04-25 01:04:00,1846E-3,5C000000,-0724,0834,12176,027.2,045.4,0.478,733.6,01.19,0.508
2015-04-25 01:05:00,1696E-3,5C000000,-0724,0833,12196,027.2,045.4,0.478,733.6,01.19,0.508
2015-04-25 01:06:00,1768E-3,5C000000,-0724,0833,12221,027.3,045.4,0.477,733.6,01.19,0.508
2015-04-25 01:07:00,1863E-3,5C000000,-0724,0834,12093,027.4,045.4,0.477,733.6,01.19,0.508
2015-04-25 01:08:00,1728E-3,5C000000,-0724,0835,12223,027.5,045.4,0.477,733.6,01.19,0.508
2015-04-25 01:09:00,1897E-3,5C000000,-0724,0834,12214,027.6,045.4,0.477,733.6,01.19,0.508
2015-04-25 01:10:00,1648E-3,5C000000,-0724,0835,12178,027.6,045.4,0.477,733.6,01.19,0.508
2015-04-25 01:11:00,1743E-3,5C000000,-0724,0834,12238,027.7,045.4,0.476,733.6,01.19,0.508
2015-04-25 01:12:00,1824E-3,5C000000,-0724,0834,12239,027.9,045.4,0.476,733.5,01.19,0.508
2015-04-25 01:13:00,1837E-3,5C000000,-0724,0834,11995,028.1,045.4,0.476,733.5,01.19,0.508
2015-04-25 01:14:00,1709E-3,5C000000,-0724,0834,12008,028.2,045.4,0.475,733.5,01.19,0.508
2015-04-25 01:15:00,1587E-3,5C000000,-0724,0834,12072,028.4,045.4,0.475,733.5,01.19,0.508
2015-04-25 01:16:00,1683E-3,5C000000,-0724,0834,12156,028.5,045.5,0.474,733.5,01.19,0.508
2015-04-25 01:17:00,1784E-3,5C000000,-0724,0834,12001,028.6,045.4,0.475,733.5,01.19,0.508
2015-04-25 01:18:00,1689E-3,5C000000,-0724,0833,12241,028.7,045.4,0.475,733.5,01.19,0.508
2015-04-25 01:19:00,1817E-3,5C000000,-0724,0834,12126,028.7,045.4,0.474,733.5,01.19,0.508
2015-04-25 01:20:00,1704E-3,5C000000,-0724,0834,12160,028.7,045.5,0.474,733.5,01.19,0.508
2015-04-25 01:21:00,1682E-3,5C000000,-0724,0834,12152,028.6,045.5,0.474,733.5,01.19,0.508
2015-04-25 01:22:00,1708E-3,5C000000,-0724,0833,12213,028.6,045.5,0.474,733.5,01.19,0.508
2015-04-25 01:23:00,1867E-3,5C000000,-0724,0834,12141,028.6,045.4,0.474,733.5,01.19,0.508
2015-04-25 01:24:00,1843E-3,5C000000,-0724,0833,12133,028.5,045.4,0.474,733.5,01.19,0.508
2015-04-25 01:25:00,1654E-3,5C000000,-0724,0833,12234,028.5,045.4,0.474,733.5,01.19,0.508
2015-04-25 01:26:00,1816E-3,5C000000,-0724,0835,12140,028.4,045.4,0.474,733.5,01.19,0.508
2015-04-25 01:27:00,1817E-3,5C000000,-0724,0834,12289,028.3,045.4,0.474,733.5,01.19,0.508
2015-04-25 01:28:00,1684E-3,5C000000,-0724,0833,12165,028.2,045.5,0.474,733.6,01.19,0.508
2015-04-25 01:29:00,1759E-3,5C000000,-0724,0833,12213,028.0,045.4,0.474,733.5,01.19,0.508
2015-04-25 01:30:00,1720E-3,5C000000,-0724,0834,12069,027.9,045.4,0.475,733.6,01.19,0.508
2015-04-25 01:31:00,1844E-3,5C000000,-0724,0833,12274,027.7,045.4,0.474,733.6,01.19,0.508
2015-04-25 01:32:00,1732E-3,5C000000,-0724,0834,12105,027.5,045.4,0.475,733.6,01.19,0.508
2015-04-25 01:33:00,1750E-3,5C000000,-0724,0834,12052,027.4,045.4,0.475,733.6,01.19,0.508
2015-04-25 01:34:00,1787E-3,5C000000,-0724,0833,12259,027.4,045.4,0.476,733.6,01.19,0.508
2015-04-25 01:35:00,1868E-3,5C000000,-0724,0832,12192,027.2,045.4,0.475,733.5,01.19,0.508
2015-04-25 01:36:00,1859E-3,5C000000,-0724,0833,12082,027.1,045.4,0.475,733.5,01.19,0.508
2015-04-25 01:37:00,1783E-3,5C000000,-0724,0833,12136,027.0,045.4,0.476,733.5,01.19,0.508
2015-04-25 01:38:00,1769E-3,5C000000,-0724,0833,12070,026.9,045.4,0.476,733.5,01.19,0.508
2015-04-25 01:39:00,1789E-3,5C000000,-0724,0833,12185,026.8,045.4,0.476,733.5,01.19,0.508
2015-04-25 01:40:00,1722E-3,5C000000,-0724,0833,12243,026.8,045.4,0.476,733.5,01.19,0.508
2015-04-25 01:41:00,1915E-3,5C000000,-0724,0833,12166,026.7,045.4,0.476,733.5,01.19,0.508
2015-04-25 01:42:00,1795E-3,5C000000,-0724,0833,12105,026.6,045.4,0.476,733.5,01.19,0.508
2015-04-25 01:43:00,1666E-3,5C000000,-0724,0833,12164,026.6,045.4,0.477,733.5,01.19,0.508
2015-04-25 01:44:00,1520E-3,5C000000,-0724,0833,12187,026.5,045.4,0.476,733.5,01.19,0.508
2015-04-25 01:45:00,1742E-3,5C000000,-0724,0833,12057,026.4,045.4,0.477,733.5,01.19,0.508
2015-04-25 01:46:00,1847E-3,5C000000,-0724,0832,12257,026.4,045.4,0.476,733.5,01.19,0.508
2015-04-25 01:47:00,1807E-3,5C000000,-0724,0833,12119,026.4,045.4,0.477,733.5,01.19,0.508
2015-04-25 01:48:00,1790E-3,5C000000,-0724,0833,12099,026.3,045.4,0.477,733.5,01.19,0.508
2015-04-25 01:49:00,1909E-3,5C000000,-0724,0834,12071,026.3,045.4,0.477,733.5,01.19,0.508
2015-04-25 01:50:00,1780E-3,5C000000,-0724,0834,12144,026.2,045.4,0.477,733.5,01.19,0.508
2015-04-25 01:51:00,1706E-3,5C000000,-0724,0834,12324,026.2,045.4,0.477,733.5,01.19,0.508
2015-04-25 01:52:00,1864E-3,5C000000,-0724,0833,12251,026.2,045.4,0.477,733.5,01.19,0.508
2015-04-25 01:53:00,1758E-3,5C000000,-0724,0833,12068,026.2,045.4,0.477,733.5,01.19,0.508
2015-04-25 01:54:00,1909E-3,5C000000,-0724,0834,12237,026.2,045.4,0.477,733.5,01.19,0.508
2015-04-25 01:55:00,1787E-3,5C000000,-0724,0832,11944,026.3,045.4,0.477,733.5,01.19,0.508
2015-04-25 01:56:00,1819E-3,5C000000,-0724,0833,12156,026.4,045.4,0.477,733.5,01.19,0.508
2015-04-25 01:57:00,1701E-3,5C000000,-0724,0834,12155,026.4,045.4,0.477,733.5,01.19,0.508
2015-04-25 01:58:00,1842E-3,5C000000,-0724,0833,12194,026.5,045.4,0.476,733.5,01.19,0.508
2015-04-25 01:59:00,1861E-3,5C000000,-0724,0833,12198,026.6,045.4,0.477,733.5,01.19,0.508
2015-04-25 02:00:00,1664E-3,5C000000,-0724,0832,12073,026.6,045.4,0.477,733.5,01.19,0.508
2015-04-25 02:01:00,1777E-3,5C000000,-0724,0832,12207,026.7,045.4,0.476,733.5,01.19,0.508
2015-04-25 02:02:00,1681E-3,5C000000,-0724,0833,12013,026.8,045.4,0.477,733.5,01.19,0.508
2015-04-25 02:03:00,1807E-3,5C000000,-0724,0833,12161,026.8,045.4,0.476,733.5,01.19,0.508
2015-04-25 02:04:00,1740E-3,5C000000,-0724,0833,12178,026.9,045.4,0.476,733.4,01.19,0.508
2015-04-25 02:05:00,1755E-3,5C000000,-0724,0833,12094,026.9,045.4,0.476,733.4,01.19,0.508
2015-04-25 02:06:00,1771E-3,5C000000,-0724,0833,12260,027.0,045.4,0.476,733.4,01.19,0.508
2015-04-25 02:07:00,1807E-3,5C000000,-0724,0834,12026,027.0,045.4,0.476,733.4,01.19,0.508
2015-04-25 02:08:00,1675E-3,5C000000,-0724,0833,12200,027.0,045.4,0.476,733.4,01.19,0.508
2015-04-25 02:09:00,1887E-3,5C000000,-0724,0833,11983,027.0,045.4,0.476,733.4,01.19,0.508
2015-04-25 02:10:00,1815E-3,5C000000,-0724,0834,12115,027.0,045.4,0.476,733.4,01.19,0.508
2015-04-25 02:11:00,1877E-3,5C000000,-0724,0834,12193,027.0,045.4,0.476,733.4,01.19,0.508
2015-04-25 02:12:00,1658E-3,5C000000,-0724,0833,12072,027.0,045.4,0.476,733.4,01.19,0.508
2015-04-25 02:13:00,1760E-3,5C000000,-0724,0833,12201,026.9,045.4,0.476,733.4,01.19,0.508
2015-04-25 02:14:00,1689E-3,5C000000,-0724,0834,12239,026.8,045.4,0.476,733.4,01.19,0.508
2015-04-25 02:15:00,1804E-3,5C000000,-0724,0834,12150,026.7,045.4,0.476,733.4,01.19,0.508
2015-04-25 02:16:00,1749E-3,5C000000,-0724,0835,12182,026.6,045.4,0.476,733.4,01.19,0.508
2015-04-25 02:17:00,1707E-3,5C000000,-0724,0834,12080,026.5,045.4,0.477,733.4,01.19,0.508
2015-04-25 02:18:00,1811E-3,5C000000,-0724,0834,12148,026.4,045.4,0.476,733.4,01.19,0.508
2015-04-25 02:19:00,1720E-3,5C000000,-0724,0834,12108,026.4,045.4,0.476,733.4,01.19,0.508
2015-04-25 02:20:00,1748E-3,5C000000,-0724,0833,12210,026.3,045.4,0.477,733.4,01.19,0.508
2015-04-25 02:21:00,1785E-3,5C000000,-0724,0834,12080,026.2,045.4,0.477,733.4,01.19,0.508
2015-04-25 02:22:00,1789E-3,5C000000,-0724,0833,12197,026.2,045.4,0.477,733.4,01.19,0.508
2015-04-25 02:23:00,1764E-3,5C000000,-0724,0833,12094,026.2,045.4,0.477,733.4,01.19,0.508
2015-04-25 02:24:00,1808E-3,5C000000,-0724,0834,12296,026.1,045.4,0.477,733.4,01.19,0.508
2015-04-25 02:25:00,1784E-3,5C000000,-0724,0833,12164,026.1,045.4,0.477,733.4,01.19,0.508
2015-04-25 02:26:00,1771E-3,5C000000,-0724,0833,12103,026.0,045.4,0.477,733.4,01.19,0.508
2015-04-25 02:27:00,1791E-3,5C000000,-0724,0833,12004,026.0,045.4,0.477,733.4,01.19,0.508
2015-04-25 02:28:00,1798E-3,5C000000,-0724,0834,12150,026.0,045.4,0.477,733.4,01.19,0.508
2015-04-25 02:29:00,1814E-3,5C000000,-0724,0833,12219,025.9,045.4,0.477,733.4,01.19,0.508
2015-04-25 02:30:00,1799E-3,5C000000,-0724,0833,12207,025.9,045.4,0.478,733.4,01.19,0.508
2015-04-25 02:31:00,1816E-3,5C000000,-0724,0833,12143,025.8,045.4,0.477,733.4,01.19,0.508
2015-04-25 02:32:00,1710E-3,5C000000,-0724,0833,12050,025.8,045.4,0.478,733.4,01.19,0.508
2015-04-25 02:33:00,1743E-3,5C000000,-0724,0833,12265,025.8,045.4,0.477,733.4,01.19,0.508
2015-04-25 02:34:00,1885E-3,5C000000,-0724,0834,12235,025.8,045.4,0.478,733.4,01.19,0.508
2015-04-25 02:35:00,1720E-3,5C000000,-0724,0833,12235,025.8,045.4,0.477,733.4,01.19,0.508
2015-04-25 02:36:00,1899E-3,5C000000,-0724,0834,12280,025.7,045.4,0.478,733.4,01.19,0.508
2015-04-25 02:37:00,1794E-3,5C000000,-0724,0833,12178,025.7,045.4,0.478,733.4,01.19,0.508
2015-04-25 02:38:00,1745E-3,5C000000,-0724,0833,12000,025.7,045.4,0.477,733.4,01.19,0.508
2015-04-25 02:39:00,1778E-3,5C000000,-0724,0833,12293,025.7,045.4,0.478,733.4,01.19,0.508
2015-04-25 02:40:00,1764E-3,5C000000,-0724,0833,12119,025.7,045.4,0.477,733.4,01.19,0.508
2015-04-25 02:41:00,1751E-3,5C000000,-0724,0833,12190,025.7,045.4,0.478,733.4,01.19,0.508
2015-04-25 02:42:00,1895E-3,5C000000,-0724,0833,12120,025.7,045.4,0.477,733.4,01.19,0.508
2015-04-25 02:43:00,1773E-3,5C000000,-0724,0833,12140,025.6,045.4,0.478,733.3,01.19,0.508
2015-04-25 02:44:00,1936E-3,5C000000,-0724,0833,12131,025.6,045.4,0.478,733.4,01.19,0.508
2015-04-25 02:45:00,1713E-3,5C000000,-0724,0833,12297,025.6,045.4,0.478,733.4,01.19,0.508
2015-04-25 02:46:00,1779E-3,5C000000,-0724,0833,12259,025.6,045.4,0.478,733.4,01.19,0.508
2015-04-25 02:47:00,1915E-3,5C000000,-0724,0834,12189,025.6,045.4,0.477,733.3,01.19,0.508
2015-04-25 02:48:00,1781E-3,5C000000,-0724,0833,12180,025.6,045.4,0.478,733.3,01.19,0.508
2015-04-25 02:49:00,1834E-3,5C000000,-0724,0833,12122,025.6,045.4,0.477,733.3,01.19,0.508
2015-04-25 02:50:00,1778E-3,5C000000,-0724,0835,12086,025.6,045.4,0.478,733.3,01.19,0.508
2015-04-25 02:51:00,1853E-3,5C000000,-0724,0833,12159,025.6,045.4,0.478,733.3,01.19,0.508
2015-04-25 02:52:00,1732E-3,5C000000,-0724,0833,12238,025.6,045.4,0.478,733.3,01.19,0.508
2015-04-25 02:53:00,1723E-3,5C000000,-0724,0833,12178,025.6,045.4,0.478,733.3,01.19,0.508
2015-04-25 02:54:00,1690E-3,5C000000,-0724,0833,12246,025.6,045.4,0.478,733.3,01.19,0.508
2015-04-25 02:55:00,1779E-3,5C000000,-0724,0833,12238,025.5,045.4,0.478,733.3,01.19,0.508
2015-04-25 02:56:00,1801E-3,5C000000,-0724,0833,12136,025.5,045.4,0.477,733.3,01.19,0.508
2015-04-25 02:57:00,1768E-3,5C000000,-0724,0833,12211,025.5,045.4,0.478,733.3,01.19,0.508
2015-04-25 02:58:00,1674E-3,5C000000,-0724,0833,12187,025.5,045.4,0.478,733.3,01.19,0.508
2015-04-25 02:59:00,1826E-3,5C000000,-0724,0833,12186,025.6,045.4,0.478,733.3,01.19,0.508
2015-04-25 03:00:00,1743E-3,5C000000,-0724,0833,12076,025.6,045.4,0.478,733.3,01.19,0.508
2015-04-25 03:01:00,1739E-3,5C000000,-0724,0834,12119,025.8,045.4,0.477,733.2,01.19,0.508
2015-04-25 03:02:00,1739E-3,5C000000,-0724,0834,12226,025.9,045.4,0.478,733.2,01.19,0.508
2015-04-25 03:03:00,,5C000000,-0724,0834,12339,026.0,045.4,0.478,733.2,01.19,0.508
2015-04-25 03:04:00,1857E-3,5C000000,-0724,0833,11959,026.2,045.4,0.477,733.2,01.19,0.508
2015-04-25 03:05:00,1793E-3,5C000000,-0724,0833,12090,026.2,045.4,0.477,733.2,01.19,0.508
2015-04-25 03:06:00,1752E-3,5C000000,-0724,0833,12199,026.4,045.4,0.477,733.2,01.19,0.508
2015-04-25 03:07:00,1845E-3,5C000000,-0724,0834,12104,026.4,045.4,0.477,733.2,01.19,0.508
2015-04-25 03:08:00,1745E-3,5C000000,-0724,0833,12064,026.5,045.4,0.476,733.2,01.19,0.508
2015-04-25 03:09:00,1703E-3,5C000000,-0724,0834,12224,026.6,045.4,0.476,733.2,01.19,0.508
2015-04-25 03:10:00,1883E-3,5C000000,-0724,0833,12210,026.6,045.4,0.477,733.2,01.19,0.508
2015-04-25 03:11:00,1811E-3,5C000000,-0724,0834,12088,026.7,045.4,0.476,733.2,01.19,0.508
2015-04-25 03:12:00,1705E-3,5C000000,-0724,0834,12045,026.7,045.4,0.476,733.2,01.19,0.508
2015-04-25 03:13:00,1709E-3,5C000000,-0724,0834,12155,026.7,045.4,0.476,733.2,01.19,0.508
2015-04-25 03:14:00,1702E-3,5C000000,-0724,0833,11960,026.7,045.4,0.476,733.2,01.19,0.508
2015-04-25 03:15:00,1833E-3,5C000000,-0724,0833,12072,026.7,045.4,0.476,733.2,01.19,0.508
2015-04-25 03:16:00,1864E-3,5C000000,-0724,0834,12144,026.6,045.4,0.476,733.2,01.19,0.508
2015-04-25 03:17:00,1784E-3,5C000000,-0724,0833,12218,026.5,045.4,0.476,733.2,01.19,0.508
2015-04-25 03:18:00,1789E-3,5C000000,-0724,0833,12283,026.4,045.4,0.477,733.2,01.19,0.508
2015-04-25 03:19:00,1726E-3,5C000000,-0724,0833,12235,026.3,045.4,0.476,733.2,01.19,0.508
2015-04-25 03:20:00,1744E-3,5C000000,-0724,0834,12178,026.3,045.4,0.477,733.2,01.19,0.508
2015-04-25 03:21:00,1797E-3,5C000000,-0724,0833,12184,026.2,045.4,0.477,733.2,01.19,0.508
2015-04-25 03:22:00,1685E-3,5C000000,-0724,0833,12306,026.2,045.4,0.476,733.2,01.19,0.508
2015-04-25 03:23:00,1783E-3,5C000000,-0724,0834,12351,026.1,045.4,0.477,733.2,01.19,0.508
2015-04-25 03:24:00,1749E-3,5C000000,-0724,0832,12174,026.1,045.4,0.477,733.2,01.19,0.508
2015-04-25 03:25:00,1839E-3,5C000000,-0724,0833,12110,026.0,045.4,0.477,733.2,01.19,0.508
2015-04-25 03:26:00,1871E-3,5C000000,-0724,0834,12029,026.0,045.4,0.477,733.2,01.19,0.508
2015-04-25 03:27:00,1839E-3,5C000000,-0724,0833,12188,025.9,045.4,0.477,733.2,01.19,0.508
2015-04-25 03:28:00,1688E-3,5C000000,-0724,0833,12184,025.9,045.4,0.477,733.2,01.19,0.508
2015-04-25 03:29:00,1692E-3,5C000000,-0724,0833,12239,025.9,045.4,0.477,733.2,01.19,0.508
2015-04-25 03:30:00,1708E-3,5C000000,-0724,0833,12197,025.9,045.4,0.477,733.2,01.19,0.508
2015-04-25 03:31:00,1840E-3,5C000000,-0724,0834,12324,025.8,045.4,0.477,733.2,01.19,0.508
2015-04-25 03:32:00,1648E-3,5C000000,-0724,0834,12153,025.8,045.4,0.477,733.2,01.19,0.508
2015-04-25 03:33:00,1960E-3,5C000000,-0724,0833,12136,025.8,045.4,0.477,733.2,01.19,0.508
2015-04-25 03:34:00,1821E-3,5C000000,-0724,0831,12264,025.8,045.4,0.477,733.2,01.19,0.508
2015-04-25 03:35:00,1829E-3,5C000000,-0724,0833,12170,025.7,045.4,0.478,733.2,01.19,0.508
2015-04-25 03:36:00,1724E-3,5C000000,-0724,0833,12196,025.7,045.4,0.477,733.2,01.19,0.508
2015-04-25 03:37:00,1721E-3,5C000000,-0724,0833,12202,025.7,045.4,0.478,733.2,01.19,0.508
2015-04-25 03:38:00,1745E-3,5C000000,-0724,0833,12391,025.7,045.4,0.477,733.2,01.19,0.508
2015-04-25 03:39:00,1716E-3,5C000000,-0724,0833,12275,025.7,045.4,0.477,733.2,01.19,0.508
2015-04-25 03:40:00,1677E-3,5C000000,-0724,0833,12236,025.7,045.3,0.478,733.2,01.19,0.508
2015-04-25 03:41:00,1766E-3,5C000000,-0724,0833,12003,025.7,045.4,0.477,733.2,01.19,0.508
2015-04-25 03:42:00,1795E-3,5C000000,-0724,0833,12174,025.7,045.4,0.478,733.2,01.19,0.508
2015-04-25 03:43:00,1769E-3,5C000000,-0724,0834,12275,025.7,045.4,0.477,733.2,01.19,0.508
2015-04-25 03:44:00,1722E-3,5C000000,-0724,0834,12199,025.6,045.4,0.478,733.2,01.19,0.508
2015-04-25 03:45:00,1684E-3,5C000000,-0724,0833,12168,025.6,045.4,0.478,733.1,01.19,0.508
2015-04-25 03:46:00,1873E-3,5C000000,-0724,0833,12310,025.6,045.4,0.477,733.2,01.19,0.508
2015-04-25 03:47:00,1606E-3,5C000000,-0724,0833,12141,025.6,045.4,0.478,733.1,01.19,0.508
2015-04-25 03:48:00,1761E-3,5C000000,-0724,0833,11999,025.6,045.4,0.477,733.1,01.19,0.508
2015-04-25 03:49:00,1743E-3,5C000000,-0724,0833,12159,025.6,045.4,0.478,733.1,01.19,0.508
2015-04-25 03:50:00,1624E-3,5C000000,-0724,0834,12200,025.6,045.4,0.478,733.2,01.19,0.508
2015-04-25 03:51:00,1722E-3,5C000000,-0724,0833,12183,025.6,045.4,0.477,733.1,01.19,0.508
2015-04-25 03:52:00,1725E-3,5C000000,-0724,0833,11989,025.6,045.4,0.478,733.1,01.19,0.508
2015-04-25 03:53:00,1691E-3,5C000000,-0724,0834,12137,025.6,045.4,0.477,733.1,01.19,0.508
2015-04-25 03:54:00,1645E-3,5C000000,-0724,0834,12216,025.6,045.4,0.478,733.1,01.19,0.508
2015-04-25 03:55:00,1726E-3,5C000000,-0724,0833,12249,025.6,045.4,0.478,733.1,01.19,0.508
2015-04-25 03:56:00,1668E-3,5C000000,-0724,0834,12089,025.6,045.4,0.477,733.1,01.19,0.508
2015-04-25 03:57:00,1705E-3,5C000000,-0724,0833,12076,025.5,045.4,0.478,733.1,01.19,0.508
2015-04-25 03:58:00,1822E-3,5C000000,-0724,0833,12160,025.5,045.4,0.478,733.1,01.19,0.508
2015-04-25 03:59:00,1661E-3,5C000000,-0724,0833,12139,025.5,045.4,0.477,733.1,01.19,0.508
2015-04-25 04:00:00,1771E-3,5C000000,-0724,0833,12049,025.5,045.4,0.478,733.1,01.19,0.508
2015-04-25 04:01:00,1725E-3,5C000000,-0724,0834,12244,025.5,045.4,0.478,733.1,01.19,0.508
2015-04-25 04:02:00,1749E-3,5C000000,-0724,0834,12056,025.5,045.4,0.478,733.1,01.19,0.508
2015-04-25 04:03:00,1656E-3,5C000000,-0724,0833,12267,025.5,045.4,0.478,733.1,01.19,0.508
2015-04-25 04:04:00,1651E-3,5C000000,-0724,0834,12006,025.5,045.4,0.477,733.1,01.19,0.508
2015-04-25 04:05:00,1804E-3,5C000000,-0724,0834,12136,025.5,045.4,0.478,733.0,01.19,0.508
2015-04-25 04:06:00,1821E-3,5C000000,-0724,0833,12360,025.5,045.4,0.478,733.1,01.19,0.508
2015-04-25 04:07:00,1701E-3,5C000000,-0724,0833,12064,025.5,045.4,0.477,733.1,01.19,0.508
2015-04-25 04:08:00,1674E-3,5C000000,-0724,0833,12189,025.5,045.4,0.478,733.1,01.19,0.508
2015-04-25 04:09:00,1783E-3,5C000000,-0724,0833,12270,025.6,045.4,0.478,733.1,01.19,0.508
2015-04-25 04:10:00,1718E-3,5C000000,-0724,0833,12322,025.5,045.4,0.478,733.1,01.19,0.508
2015-04-25 04:11:00,1721E-3,5C000000,-0724,0833,12200,025.5,045.4,0.478,733.1,01.19,0.508
2015-04-25 04:12:00,1847E-3,5C000000,-0724,0834,12318,025.5,045.4,0.477,733.1,01.19,0.508
2015-04-25 04:13:00,1849E-3,5C000000,-0724,0833,12155,025.5,045.4,0.478,733.1,01.19,0.508
2015-04-25 04:14:00,1741E-3,5C000000,-0724,0833,12101,025.5,045.4,0.478,733.1,01.19,0.508
2015-04-25 04:15:00,1886E-3,5C000000,-0724,0833,12161,025.5,045.4,0.477,733.1,01.19,0.508
2015-04-25 04:16:00,1714E-3,5C000000,-0724,0834,12166,025.5,045.4,0.478,733.1,01.19,0.508
2015-04-25 04:17:00,1875E-3,5C000000,-0724,0833,12129,025.5,045.4,0.478,733.1,01.19,0.508
2015-04-25 04:18:00,1899E-3,5C000000,-0724,0834,12133,025.5,045.4,0.477,733.1,01.19,0.508
2015-04-25 04:19:00,1607E-3,5C000000,-0724,0833,12138,025.5,045.4,0.478,733.1,01.19,0.508
2015-04-25 04:20:00,1700E-3,5C000000,-0724,0832,12068,025.5,045.4,0.478,733.1,01.19,0.508